www.pogodaiklimat.ru

Погода и климат >> Архив погоды >> Россия >> Ненецкий АО >> Имени Федорова


ПОГОДА в Имени Федорова

  • Прогноз погоды в Имени Федорова
  • Монитор погоды в Имени Федорова

АРХИВ ПОГОДЫ в Имени Федорова

Время (UTC), дата Ветер
(напр.,м/с)
 
Видим.   Явления Облачность Т
(С)
Тd
(С)
f
(%)
Тe
(С)
Тes
(С)
Комфортность P
(гПа)
Po
(гПа)
Тmin
(С)
Tmax
(С)
R
(мм)
R24
(мм)
S
(см)
06 9.01 СВ 9-12
{14}
10 км сильный позёмок {ливн. осадки} 9/9 300 м
[Sc]
-12.1 -15.9 73 -23 -23 1008.8 1007.4
09 9.01 СВ 6
{13}
10 км позёмок {ливн. осадки} 9/9 300 м
[Sc]
-12.4 -14.5 84 -21 -21 1010.2 1008.8
12 9.01 С 6-10
{10}
10 км позёмок {ливн. осадки} 10/10 300 м
[Sc]
-12.3 -13.7 89 -21 -21 1010.9 1009.5
15 9.01 С 9-12
{13}
10 км сильный позёмок 10/10 300 м
[Sc]
-11.9 -13.9 85 -22 -22 1010.9 1009.5 -11.6 0.3
18 9.01 С 10-13
{14}
4000 м метель 10/10 300 м
[Sc]
-12.1 -13.4 90 -23 -23 1011.3 1009.9
21 9.01 СЗ 9-12
{14}
10 км сильный позёмок 10/10 300 м
[Sc]
-12.0 -14.6 81 -23 -23 1011.6 1010.2
00 10.01 С 9-14
{14}
2000 м слаб. ливневой снег {метель} 10/10 300 м
[Cb cap]
-11.3 -13.9 81 -22 -22 1011.0 1009.6
03 10.01 СВ 9-12
{14}
2000 м слаб. ливневой снег {метель} 10/10 300 м
[Cb cap]
-12.0 -13.3 90 -23 -23 1011.7 1010.3 -12.3 0.3 9
06 10.01 СВ 8-12
{12}
10 км позёмок {ливн. осадки} 9/9 300 м
[Sc]
-12.5 -14.9 82 -23 -23 1012.7 1011.3 -12.5
09 10.01 СВ 2
{12}
10 км {метель} 8/5 600 м
[Sc Ac trans Ci fib]
-13.0 -18.5 63 -18 -18 1013.1 1011.7
12 10.01 ЮЗ 4 10 км {метель} 9/9 600 м
[Sc]
-17.6 -20.7 77 -26 -26 1013.2 1011.8
15 10.01 Ю 8 10 км позёмок 10/10 600 м
[Sc]
-13.8 -15.1 90 -24 -24 1011.6 1010.2 -11.9
18 10.01 ЮЗ 13-15
{17}
4000 м метель 10/10 600 м
[Sc]
-13.8 -14.8 92 -27 -27 1009.0 1007.6
21 10.01 ЮЗ 16-20
{20}
500 м слаб. снег {метель} 10/0 300 м
[As op]
-12.4 -13.1 94 -26 -26 1004.9 1003.5
00 11.01 ЮЗ 12-15
{21}
1000 м слаб. снег {метель} 10/0 300 м
[As op]
-10.9 -11.5 95 -23 -23 1003.7 1002.3
03 11.01 Ю 10-12
{15}
10 км сильный позёмок 10/10 300 м
[Sc]
-12.0 -12.9 93 -23 -23 1001.8 1000.4 -14.4 0.2 9
06 11.01 Ю 13-15
{15}
4000 м метель {снег} 10/10 300 м
[Sc]
-14.1 -15.1 92 -27 -27 999.5 998.1
09 11.01 Ю 13-16
{17}
4000 м метель 9/0
[Ac trans Ci]
-14.9 -15.9 92 -28 -28 998.1 996.7
12 11.01 Ю 16-19
{20}
2000 м метель 9/0
[Ac trans]
-13.7 -14.6 93 -28 -28 995.8 994.4
15 11.01 Ю 15-19
{20}
2000 м метель 10/10 600 м
[Sc]
-10.8 -11.5 95 -24 -24 993.6 992.3 -10.8
18 11.01 ЮЗ 18-22
{23}
2000 м метель 10/10 600 м
[Sc]
-10.8 -11.6 94 -24 -24 992.0 990.6
21 11.01 Ю 12-16
{23}
4000 м метель 10/10 600 м
[Sc]
-11.0 -11.8 94 -23 -23 991.6 990.2
00 12.01 ЮЗ 9-12
{17}
10 км сильный позёмок 10/10 600 м
[Sc]
-11.1 -12.0 93 -22 -22 990.9 989.6
03 12.01 Ю 10-12
{13}
10 км сильный позёмок 10/10 300 м
[Sc]
-11.2 -12.1 93 -22 -22 989.1 987.7 -11.3 7
06 12.01 Ю 9-12
{13}
4000 м слаб. снег {метель} 10/0
[As op]
-10.4 -11.1 95 -21 -21 987.9 986.5
09 12.01 Ю 8-10
{12}
10 км позёмок {снег} 10/0
[Ac und]
-9.8 -10.6 94 -20 -20 987.2 985.9
12 12.01 Ю 5
{10}
10 км {снег, метель} 6/0
[Ac trans]
-9.7 -10.5 94 -18 -18 987.0 985.6
15 12.01 Ю 7
{11}
10 км {метель} 4/0
[Ac trans]
-10.0 -10.7 95 -19 -19 987.1 985.7 -9.3 0.2
18 12.01 Ю 6 10 км {метель} 10/0
[Ac und]
-8.9 -9.7 94 -17 -17 987.0 985.6
21 12.01 Ю 5 10 км 10/0
[Ac und]
-8.4 -9.3 93 -16 -16 986.6 985.3
00 13.01 Ю 6 10 км 10/0
[Ac und]
-8.7 -9.8 92 -17 -17 985.8 984.5
03 13.01 Ю 5 10 км 10/0
[Ac und]
-8.5 -9.1 95 -16 -16 984.7 983.4 -10.2 7
06 13.01 Ю 7 10 км позёмок 10/0
[Ac und]
-9.4 -10.1 95 -19 -19 984.8 983.4
09 13.01 Ю 6
{10}
10 км позёмок 9/0
[Ac trans]
-10.3 -11.3 92 -19 -19 984.9 983.5
12 13.01 Ю 5 10 км {метель} 10/0
[Ac und]
-11.0 -12.0 92 -19 -19 984.7 983.3
15 13.01 Ю 6 10 км 10/0
[Ac und]
-11.0 -12.1 92 -20 -20 984.6 983.2 -8.3
18 13.01 Ю 6 4000 м слаб. снег {метель} 10/0
[As op]
-10.4 -11.2 94 -19 -19 984.3 982.9
21 13.01 Ю 6 4000 м слаб. снег {метель} 10/10 300 м
[]
-10.4 -11.4 92 -19 -19 984.5 983.2
00 14.01 Ю 6 4000 м слаб. снег {метель} 10/0
[As op]
-10.7 -11.8 92 -19 -19 985.0 983.6
03 14.01 Ю 5 4000 м слаб. снег {метель} 10/0
[As op]
-10.8 -11.9 92 -19 -19 985.6 984.2 -11.2 0.5 8
06 14.01 Ю 6 10 км позёмок {снег} 10/0
[Ac und]
-11.9 -12.9 92 -21 -21 986.3 984.9 -11.9
09 14.01 ЮЗ 7 10 км позёмок 10/0
[Ac und]
-12.2 -13.3 91 -22 -22 987.1 985.8
12 14.01 ЮЗ 6 10 км позёмок 10/0
[Ac und]
-12.2 -13.1 93 -21 -21 988.1 986.7
15 14.01 ЮЗ 5 10 км {метель} 9/0
[Ac trans]
-12.0 -12.8 94 -20 -20 988.9 987.5 -10.8
18 14.01 ЮЗ 5 10 км {метель} 8/0
[Ac trans]
-14.3 -15.3 92 -23 -23 989.8 988.4
21 14.01 ЮЗ 5 4000 м слаб. снег 10/0
[As trans]
-13.4 -14.3 93 -22 -22 990.6 989.2
00 15.01 ЮЗ 4 4000 м слаб. снег 10/0
[As trans]
-14.1 -15.0 93 -22 -22 991.4 990.0
03 15.01 ЮЗ 3 10 км {снег} 8/0
[Ac trans]
-15.2 -16.2 92 -22 -22 991.9 990.6 -15.5 0.2 8
06 15.01 Ю 2 10 км {снег} 9/0
[Ac trans]
-10.0 -10.5 96 -15 -15 992.5 991.1
09 15.01 ЮЗ 2 10 км 10/0
[Ac und]
-10.2 -11.0 94 -15 -15 993.2 991.8
12 15.01 ЮЗ 2 10 км 10/0
[Ac und]
-10.2 -11.0 94 -15 -15 993.2 991.8
15 15.01 З 2 10 км 10/10 600 м
[Sc]
-13.5 -14.3 94 -18 -18 993.9 992.6
18 15.01 З 1 10 км 10/10 600 м
[Sc]
-9.9 -10.6 95 -12 -12 994.5 993.2 -8.8
21 15.01 З 3 10 км 8/8 600 м
[Sc]
-10.6 -11.3 95 -17 -17 996.1 994.7
00 16.01 З 2 10 км 10/10 600 м
[Sc]
-9.8 -10.6 94 -14 -14 997.2 995.8

 

Местоположение метеостанции Имени Федорова (Ненецкий АО, Россия): широта 70.45 долгота 59.08 высота над уровнем моря 12 м.

В архиве по умолчанию представлена погода в Имени Федорова за последнюю неделю. Архивные данные за месяц целиком и за предыдущие месяцы, начиная с января 2011 года, Вы можете получить, выбрав интересующий диапазон дат из раскрывающегося списка и нажав кнопку "Ввод!".


*Определитесь, кто Вы:
робот инопланетянин человек

Внимание! Время в таблицах - всемирное. Для получения местного времени необходимо прибавить поправку, которая равна 3 ч.

Смотрите также архив погоды в соседних городах и на ближайших метеорологических станциях:

Погода на Мысе Белый Нос (Ненецкий АО, Россия) (104 км)
Погода в Амдерме (Ненецкий АО, Россия) (124 км)
Погода в Варандее (Ненецкий АО, Россия) (186 км)
Погода на Мысе Константиновском (Ненецкий АО, Россия) (253 км)
Погода в Усть-Каре (Ненецкий АО, Россия) (261 км)
Погода в Ходоварихе (Ненецкий АО, Россия) (266 км)
Погода в Марресале (Ямало-Ненецкий АО, Россия) (304 км)
Погода в Малых Кармакулах (Архангельская область, Россия) (310 км)
Погода в Хорей-Вере (Ненецкий АО, Россия) (339 км)
Погода в Сенгейском Шаре (Ненецкий АО, Россия) (376 км)

Пояснения к столбцам:

Ветер - указаны скорость ветра в м/с - средняя за 10 мин, порывы в срок и между сроками (в фигурных скобках) и направление, откуда дует ветер: С - северный, СВ - северо-восточный, В - восточный, ЮВ - юго-восточный, Ю - южный, ЮЗ - юго-западный, З - западный, СЗ - северо-западный.
Видимость - горизонтальная дальность видимости в метрах или километрах. При видимости от 1 до 10 км при отсутствии осадков обычно наблюдается дымка, при ухудшении видимости до 1 км и менее - туман. В сухую погоду видимость может ухудшаться дымом, пылью или мглою.
Явления - указаны атмосферные явления, наблюдавшиеся в срок или в последний час перед сроком; фигурными скобками обозначены явления, наблюдавшиеся между сроками (за 1-3 часа до срока); квадратными скобками обозначены град или гололедные отложения с указанием их диаметра в мм.
Облачность - указаны через наклонную черту общая и нижняя облачность в баллах и высота нижней границы облаков в метрах; квадратными скобками обозначены формы облаков: Ci - перистые, Cs - перисто-слоистые, Cc - перисто-кучевые, Ac - высококучевые, As - высокослоистые, Sc - слоисто-кучевые, Ns - слоисто-дождевые, Cu - кучевые, Cb - кучево-дождевые. Подробнее классификацию облаков см. в Атласе облаков (PDF).
T - Температура воздуха - температура, измеренная на высоте 2 м над землей.
Td - Температура точки росы - температура, при понижении до которой содержащийся в воздухе водяной пар достигнет насыщения.
f - Относительная влажность воздуха - влажноcть воздуха, измеренная на высоте 2 м над землей.
Te - Эффективная температура - температура, которую ощущает одетый по сезону человек в тени. Характеристика душности погоды. При расчете учитывается влияние влажности воздуха и скорости ветра на теплоощущения человека.
Tes - Эффективная температура на солнце - температура, которую ощущает человек, с поправкой на солнечный нагрев. Характеристика знойности погоды. Зависит от высоты солнца над горизонтом, облачности и скорости ветра. Ночью, в пасмурную погоду, а также при ветре 12 м/с и более поправка равна нулю.
P - Атмосферное давление - приведенное к уровню моря атмосферное давление.
Po - Атмосферное давление - измеренное на уровне метеостанции атмосферное давление.
Tmin - Минимальная температура - минимум температуры воздуха на высоте 2 м над землей.
Tmax - Максимальная температура - максимум температуры воздуха на высоте 2 м над землей.
R - Количество осадков - Количество выпавших осадков за период времени, мм. При наведении курсора мыши на число - период времени, за который выпало указанное количество осадков.
R24 - Количество осадков - Количество выпавших осадков за 24 часа, мм.
S - Снежный покров - Высота снежного покрова, см. При наведении курсора мыши на число - состояние снежного покрова и степень покрытия местности в баллах.